Location: Recife
(8.0585°S, 34.8848°W)
Time: 11:35:33
(UTC-03:00)

Vanguard 2 - Pass Details

Date: 23 April 2026
Orbit: 554 x 2894 km, 32.9° (Epoch: 8 May)

Event Time Altitude Azimuth Distance (km) Brightness Sun altitude
Rises 22:57:30 0° 237° (WSW) 6,026 - -83.1°
Reaches altitude 10° 23:02:15 10° 226° (SW) 5,296 - -83.9°
Maximum altitude 23:15:40 29° 171° (S) 4,328 - -85.2°
Drops below altitude 10° 23:29:35 10° 118° (ESE) 5,508 - -84.4°
Exits shadow 23:33:30 - 109° (ESE) 6,114 12.1 -83.9°
Sets 23:34:37 0° 107° (ESE) 6,298 12.2 -83.7°
